CZ-4 DEB, 27678

Orbit data source: Space-Track

CZ-4 DEB, 27678 is space debris in SSO originally from a launch on Thu, 14 Oct 1999 UTC launched from the Taiyaun Space Center, China (TSC). Debris objects in space refer to the collection of defunct objects orbiting the Earth. Examples of debris include non-operational satellites, rocket bodies, and fragments generated from explosions, collisions, or faulty payload assembly.

Loading next visibility...
Identifier
27678, 1999-057MS
Orbit
SSO
Country
Flag of CNCN / PRC
Related business
Manufacturer
Unknown
Mission
Spacecraft
Bus & Motor
Unknown
Mass
Unknown
Launch date (UTC)
1999-10-14 (26 years ago)
Launch vehicle
Unknown
Launch site
Taiyaun Space Center, China (TSC)
Object type
Payload
Rocket body
Debris
Shape & HBR
Unknown shape, 0.1 m
Radar Cross Section
Small (<0.1 m²)

Expand to show TLE details & history
Last TLE update: 19 hours ago

TLE from 19 hours ago
0 CZ-4 DEB
1 27678U 99057MS  26036.37132152  .00000282  00000-0  11089-3 0  9995
2 27678  98.8557  73.5312 0107555  47.9529 327.4308 14.33856731238229
Epoch: 2026-02-05T08:54Z
TLE epoch observation values (Epoch: 2026-02-05T08:54:42.179Z)
Latitude
14.50601°
Longitude
162.0331°
Altitude
716.433 km
Speed
7.532 km/s
True Right ascension
04h 44m 56s
True Declination
14° 25' 20"
Sunlit
Object was in daylight at epoch
Visualization orbit readout
Latitude
Unknown
Longitude
Unknown
Altitude
Unknown
Speed
Unknown
Apparent Right ascension
Unknown
Apparent Declination
Unknown
Sunlit
N/A
Visualization observer readout
Local Sidereal Time
06:08:46
Azimuth
Unknown
Elevation
Unknown
Doppler factor
Unknown
Orbital elements
Apogee altitude
852.961 km
Perigee altitude
699.068 km
Semi-major axis
7,154.152 km
Eccentricity
0.01076
Inclination
98.8557°
RAAN
73.5312°
Arg. of periapsis
47.9529°
True anomaly
326.75974°
Mean anomaly
327.4308°
Eccentric anomaly
327.09604°
Mean motion
3.58679 °/min
Orbital period
100.37 mins
BSTAR
0.00011089
Loading maneuver chart data...
Computing Atmospheric mass density...
Loading historical data...
Loading historical data...
Loading historical data...
Loading historical data...
Loading historical data...
Loading historical data...
Loading historical data...

Documentation

Showing up to 5 results
|